Location: New Frontier Mobile Home Park
(32.8448°N, 116.9675°W)
Time: 22:42:22
(UTC+00:00)

Cosmos 1975 - Pass Details

Date: 14 July 2020
Orbit: 542 x 561 km, 82.5° (Epoch: 05 August)

Event Time Altitude Azimuth Distance (km) Brightness Sun altitude
Exits shadow 11:44:32 20° 241° (WSW) 1,307 4.1 -12.6°
Maximum altitude 11:46:17 27° 281° (W) 1,069 3.9 -12.3°
Drops below altitude 10° 11:49:41 10° 340° (NNW) 1,812 5.7 -11.7°
Sets 11:52:06 0° 353° (N) 2,707 6.8 -11.3°
